This is the latest recevied weather packets stored in our database for station/object N2PPN. If no packets are shown the sender has not sent any weather packets the latest 10 day(s).
| Time | Temp. | Humidity | Pressure | Rain* | Wind** | Luminosity | Snow |
|---|---|---|---|---|---|---|---|
| 1777862095 | 10° C | 54% | 1015.6 hPa | 0 mm | - | 0 W/m² | - |
| 1777861790 | 10° C | 52% | 1015.4 hPa | 0 mm | - | 0 W/m² | - |
| 1777861486 | 10° C | 53% | 1015.3 hPa | 0 mm | - | 0 W/m² | - |
| 1777861183 | 10° C | 53% | 1015.6 hPa | 0 mm | - | 0 W/m² | - |
| 1777860881 | 10° C | 52% | 1015.4 hPa | 0 mm | - | 0 W/m² | - |
| 1777860578 | 10° C | 53% | 1015.3 hPa | 0 mm | - | 0 W/m² | - |
| 1777860274 | 10° C | 49% | 1015.5 hPa | 0 mm | - | 0 W/m² | - |
| 1777859971 | 10° C | 51% | 1015.5 hPa | 0 mm | - | 0 W/m² | - |
| 1777859667 | 10° C | 52% | 1015.4 hPa | 0 mm | - | 0 W/m² | - |
| 1777859363 | 10° C | 53% | 1015.3 hPa | 0 mm | - | 0 W/m² | - |
| 1777859059 | 10° C | 51% | 1015.3 hPa | 0 mm | - | 0 W/m² | - |
| 1777858756 | 10.56° C | 48% | 1015.2 hPa | 0 mm | - | 0 W/m² | - |
| 1777858455 | 10.56° C | 49% | 1015.2 hPa | 0 mm | - | 0 W/m² | - |
| 1777858150 | 10.56° C | 50% | 1015.1 hPa | 0 mm | - | 0 W/m² | - |
| 1777857849 | 10.56° C | 48% | 1015.3 hPa | 0 mm | - | 0 W/m² | - |
| 1777857545 | 10.56° C | 48% | 1015 hPa | 0 mm | - | 0 W/m² | - |
| 1777857243 | 11.11° C | 45% | 1015.1 hPa | 0 mm | - | 0 W/m² | - |
| 1777856938 | 11.67° C | 44% | 1014.6 hPa | 0 mm | - | 0 W/m² | - |
| 1777856634 | 11.67° C | 42% | 1014.9 hPa | 0 mm | - | 0 W/m² | - |
| 1777856331 | 12.22° C | 41% | 1014.9 hPa | 0 mm | - | 0 W/m² | - |
| 1777856028 | 12.78° C | 39% | 1014.6 hPa | 0 mm | - | 0 W/m² | - |
| 1777855725 | 12.78° C | 38% | 1014.7 hPa | 0 mm | - | 0 W/m² | - |
| 1777855423 | 12.78° C | 38% | 1014.6 hPa | 0 mm | - | 0 W/m² | - |
| 1777855119 | 12.78° C | 38% | 1014.5 hPa | 0 mm | - | 0 W/m² | - |
| 1777854816 | 12.78° C | 37% | 1014.4 hPa | 0 mm | - | 0 W/m² | - |
* Rain latest hour (hover to see other rain measurements)
** Current wind speed in m/s (hover to see current wind gust speed)